Location: Stockholm
(59.3333°N, 18.0500°E)
Time: 02:28:22
(UTC+02:00)

ISS - Pass Details

Date: 16 May 2021
Orbit: 417 x 422 km, 51.6° (Epoch: 16 June)

Event Time Altitude Azimuth Distance (km) Brightness Sun altitude
Rises 02:52:36 0° 263° (W) 2,374 -0.3 -7.3°
Reaches altitude 10° 02:55:48 10° 231° (SW) 1,507 -1.5 -7.1°
Maximum altitude 02:57:05 12° 208° (SSW) 1,402 -1.8 -7.0°
Drops below altitude 10° 02:58:23 10° 185° (S) 1,506 -1.5 -6.9°
Sets 03:01:35 0° 152° (SSE) 2,368 -0.2 -6.7°
